User: anonymous   Login
Location: Unspecified
(0.0000°N, 0.0000°E)
Time: 06:41:33
(UTC+00:00)
Language:

COSMOS 2429 - Orbit

View from above orbital plane
View from above orbital plane
View from above satellite
View from above satellite

Ground track
Ground track

The orbit data is extracted from the following two-line orbital elements,

1 32052U 07038A   18267.73633563 +.00000050 +00000-0 +35800-4 0  9995
2 32052 082.9786 125.5477 0038044 193.9471 166.0638 13.74907118553787
Epoch (UTC): 24 September 2018 17:40:19
Eccentricity: 0.0038044
inclination: 82.9786°
perigee height: 954 km
apogee height: 1010 km
right ascension of ascending node: 125.5477°
argument of perigee: 193.9471°
revolutions per day: 13.74907118
mean anomaly at epoch: 166.0638°
orbit number at epoch: 55378

The dashed part of the orbit path shows where the satellite is in the earth's shadow,  

DLR